AirNav   ATP
 
 515 users online  

S31 Lopez Island Airport
Lopez, Washington, USA

GOING TO LOPEZ?


FAA INFORMATION EFFECTIVE 16 AUGUST 2018

Location

FAA Identifier: S31
Lat/Long: 48-29-02.1000N / 122-56-15.6000W
48-29.035000N / 122-56.260000W
48.4839167 / -122.9376667
(estimated)
Elevation: 208.8 ft. / 63.6 m (surveyed)
Variation: 21E (1985)
From city: 3 miles N of LOPEZ, WA
Time zone: UTC -7 (UTC -8 during Standard Time)
Zip code: 98261

Airport Operations

Airport use: Open to the public
Activation date: 06/1963
Control tower: no
ARTCC: SEATTLE CENTER
FSS: SEATTLE FLIGHT SERVICE STATION
NOTAMs facility: SEA (NOTAM-D service available)
Attendance: UNATNDD
Wind indicator: lighted
Segmented circle: yes
Beacon: white-green (lighted land airport)
Operates sunset to sunrise.

Airport Communications

CTAF: 128.25
WX ASOS at FHR (4 nm NW): 135.675 (360-378-8491)
WX AWOS-3 at ORS (14 nm N): 135.425 (360-376-6045)
WX AWOS-3 at OKH (17 nm SE): 132.775 (360-675-8431)

Nearby radio navigation aids

VOR radial/distance  VOR name  Freq  Var
CVVr310/16.7PENN COVE VOR/DME117.2019E
YYJr107/26.1VICTORIA VOR/DME113.7017E
HUHr187/31.1WHATCOM VORTAC113.0020E
YVRr150/36.6VANCOUVER VOR/DME115.9017E

 
NDB name  Hdg/Dist  Freq  Var  ID
FRIDAY HARBOR099/3.828417EFHR ..-. .... .-.
SKAGIT/BAY VIEW257/20.724016EBVS -... ...- ...

Airport Services

Parking: tiedowns
Airframe service: NONE
Powerplant service: NONE
Bottled oxygen: NONE
Bulk oxygen: NONE

Runway Information

Runway 16/34

Dimensions: 2905 x 61 ft. / 885 x 19 m
Surface: asphalt/grooved, in good condition
Weight bearing capacity: 
Single wheel: 12.5
Runway edge lights: medium intensity
TWY MARKED WITH REFLECTORS.
RUNWAY 16  RUNWAY 34
Latitude: 48-29.273623N48-28.795922N
Longitude: 122-56.262050W122-56.259615W
Elevation: 208.8 ft.162.9 ft.
Gradient: 1.6%1.6% UP
Traffic pattern: rightleft
Markings: basic, in good conditionbasic, in good condition
Visual slope indicator: 2-light PAPI on left (4.00 degrees glide path)2-light PAPI on left (4.00 degrees glide path)
Runway end identifier lights: yesyes
Touchdown point: yes, no lightsyes, no lights
Obstructions: 62 ft. trees, 1200 ft. from runway, 16:1 slope to clear60 ft. trees, 900 ft. from runway, 11:1 slope to clear

Airport Ownership and Management from official FAA records

Ownership: Publicly-owned
Owner: PORT OF LOPEZ
PO BOX 907
LOPEZ, WA 98261
Phone 360-468-4116
Manager: HELEN COSGROVE
PO BOX 907
LOPEZ, WA 98261
Phone 360-468-4116

Airport Operational Statistics

Aircraft based on the field: 24
Single engine airplanes: 23
Multi engine airplanes: 1
    
Aircraft operations: avg 27/day *
67% transient general aviation
25% air taxi
8% local general aviation
* for 12-month period ending 31 December 2015

Additional Remarks

RY 16/34 SOFT SHOULDERS & THLDS.
RY 16 +200 FT TREES 1,320 FT NORTH OF THLD.

Instrument Procedures

There are no published instrument procedures at S31.

Some nearby airports with instrument procedures:

KFHR - Friday Harbor Airport (4 nm NW)
KORS - Orcas Island Airport (14 nm N)
KNUW - Whidbey Island Naval Air Station (Ault Field) (14 nm SE)
KOKH - AJ Eisenberg Airport (17 nm SE)
KBVS - Skagit Regional Airport (21 nm E)
 
Loc | Ops | Rwys | IFR | FBO | Links
Com | Nav | Svcs | Stats | Notes


 
Area around S31 (Lopez Island Airport)
 
Road maps at: MapQuest Bing Google
 
Aerial photo
WARNING: Photo may not be current or correct
Aerial photo of S31 (Lopez Island Airport)
Photo by Peter Sauerwein
Photo taken 22-Jun-2011
looking north.

Do you have a better or more recent aerial photo of Lopez Island Airport that you would like to share? If so, please send us your photo.

 
Sectional chart

 
Airport distance calculator
Flying to Lopez Island Airport? Find the distance to fly.

From to S31

Sunrise and sunset
Times for 16-Aug-2018
 Local
(UTC-7)
 Zulu
(UTC)
Morning civil twilight05:3312:33
Sunrise06:0813:08
Sunset20:2403:24
Evening civil twilight20:5903:59

Current date and time
Zulu (UTC)  17-Aug-2018 05:46:14
Local (UTC-7)  16-Aug-2018 22:46:14
 
METAR
KFHR 
4nm NW 
170453Z AUTO 00000KT 8SM CLR 11/09 A3008 RMK AO2 SLP187 T01110089 TSNO
74S 
11nm E 
SuperAWOS
170535Z AUTO 17016G21KT 7SM 12/11 A3011
CWZO 
12nm W 
170500Z AUTO 16004KT RMK AO1
KORS 
13nm N 
170535Z AUTO 18008G13KT 9SM 14/12 A3007 RMK AO2
CWYJ 
14nm W 
170500Z AUTO 29002KT 14/10 RMK AO1 SLP182 T01440103 53017
KNUW 
14nm SE 
170456Z 24015KT 8SM FEW250 14/11 A3015 RMK AO2 SLP207 T01390106 $
CWLM 
16nm W 
170500Z AUTO 26013KT 13/10 RMK AO1 PK WND 27020/0403 SLP182 T01330095 53014
CYWH 
16nm W 
170400Z 22009KT 10SM FEW240 16/11 A3005 RMK CI2 FU LAST STFD OBS/NEXT 171300 UTC SLP178
CWEZ 
17nm N 
170500Z AUTO 14/12 RMK AO1 SLP178 T01440118 53010
CWPF 
19nm W 
170530Z AUTO 20004KT 15/11 RMK AO1 T01460108
TAF
KNUW 
14nm SE 
1623/1723 32008KT 9999 SCT040 SCT080 QNH3008INS TEMPO 1703/1709 VRB06KT 9000 BR SCT015 BKN040 FM170900 23006KT 9000 BR FEW005 BKN020 BKN060 QNH3015INS TEMPO 1712/1718 VRB06KT 1600 BR BKN005 OVC010 FM172200 25008KT 9999 VCFG FEW015 SCT250 QNH3017INS T19/1623Z T12/1712Z FS30028
CYWH 
16nm W 
161738Z 1618/1704 VRB03KT P6SM BKN250 BECMG 1618/1620 22010KT RMK NXT FCST BY 170000Z
NOTAMs
Click for the latest NOTAMs
NOTAMs are issued by the DoD/FAA and will open in a separate window not controlled by AirNav.

 

 
 

Would you like to see your business listed on this page?

 If your business provides an interesting product or service to pilots, flight crews, aircraft, or users of the Lopez Island Airport, you should consider listing it here.  To start the listing process, click on the button below
 
Add a business
 

Other Pages about Lopez Island Airport

Update a link
 
Copyright © AirNav, LLC. All rights reserved. Privacy Policy  Contact